Location: Elliott Island road
(38.3470°N, 75.9376°W)
Time: 03:09:47
(UTC-04:00)

Hubble Space Telescope - Visible Passes

Search period start: 20 July 2018 00:00
Search period end: 30 July 2018 00:00
Orbit: 537 x 541 km, 28.5° (Epoch: 19 July)

Date Brightness Start Highest point End Pass type
(mag) Time Alt. Az. Time Alt. Az. Time Alt. Az.
20 Jul 3.2 03:36:58 12° SE 03:36:58 12° SE 03:37:30 10° SE visible
20 Jul 2.4 05:12:20 11° SW 05:15:05 18° S 05:17:59 10° SE visible
21 Jul 2.5 05:02:44 13° SW 05:04:38 17° S 05:07:21 10° SSE visible
22 Jul 2.5 04:53:17 15° SSW 04:54:10 15° SSW 04:56:38 10° SSE visible
23 Jul 2.7 04:44:00 14° S 04:44:00 14° S 04:45:48 10° SSE visible
29 Jul 2.9 20:47:20 10° S 20:48:14 11° SSE 20:49:08 10° SSE visible
29 Jul 3.3 22:25:45 10° SW 22:25:46 10° SW 22:25:46 10° SW visible
